EDT,Max TemperatureF,Mean TemperatureF,Min TemperatureF,Max Dew PointF,MeanDew PointF,Min DewpointF,Max Humidity, Mean Humidity, Min Humidity, Max Sea Level PressureIn, Mean Sea Level PressureIn, Min Sea Level PressureIn, Max VisibilityMiles, Mean VisibilityMiles, Min VisibilityMiles, Max Wind SpeedMPH, Mean Wind SpeedMPH, Max Gust SpeedMPH,PrecipitationIn, CloudCover, Events, WindDirDegrees
2014-4-1,55,42,32,34,29,25,82,62,41,30.14,30.08,30.04,10,10,10,13,8,21,0.00,1,,297
2014-4-2,50,38,28,39,31,24,89,73,48,30.17,30.12,30.09,10,10,10,8,4,,0.00,2,,191
2014-4-3,62,44,28,35,28,14,92,60,16,30.15,30.10,30.04,10,10,10,14,5,20,0.00,1,,346
2014-4-4,44,42,41,40,34,30,89,74,60,30.14,30.00,29.77,10,9,4,16,8,32,0.05,8,Rain,94
2014-4-5,57,47,37,45,35,22,96,71,34,30.05,29.81,29.70,10,6,1,28,11,41,0.00,5,Rain,314
2014-4-6,55,38,21,31,23,15,78,54,26,30.24,30.17,30.07,10,10,10,13,6,17,0.00,0,,263
2014-4-7,50,39,28,46,38,23,93,81,48,30.27,30.05,29.78,10,6,2,16,6,30,0.43,5,Rain,95
2014-4-8,57,50,46,50,47,32,100,90,49,29.73,29.52,29.44,10,3,0,14,9,23,0.42,6,Fog-Rain,209
2014-4-9,61,46,30,36,28,16,85,48,25,30.03,29.74,29.62,10,10,10,20,9,26,0.00,0,,311
2014-4-10,52,38,24,38,27,14,73,55,31,30.25,30.15,30.06,10,10,10,14,7,24,0.00,0,,196
2014-4-11,66,56,48,45,42,37,80,66,45,30.07,30.02,29.98,10,9,7,12,9,22,0.00,1,,217
2014-4-12,66,56,39,46,38,23,90,61,20,30.26,30.17,30.01,10,10,5,12,4,17,0.00,2,,263
2014-4-13,62,46,32,49,44,28,86,75,62,30.25,30.18,30.08,10,10,9,18,7,28,0.00,2,,181
2014-4-14,63,58,52,51,50,48,90,80,65,30.09,30.03,29.93,10,9,7,18,12,31,0.00,1,,197
2014-4-15,59,48,37,55,51,35,100,93,86,29.93,29.76,29.60,10,4,0,23,14,40,0.74,8,Fog-Rain,189
2014-4-16,46,39,32,34,23,13,93,59,26,30.59,30.18,29.85,10,9,3,26,17,43,0.23,3,Rain-Snow,340
2014-4-17,46,39,33,28,24,18,70,56,46,30.75,30.68,30.60,10,10,10,16,9,24,0.00,0,,68
2014-4-18,46,40,35,34,30,26,82,70,62,30.61,30.48,30.28,10,10,10,10,7,,0.00,5,,77
2014-4-19,64,47,30,36,29,26,88,56,24,30.36,30.27,30.23,10,9,2,17,4,23,0.00,0,,339
2014-4-20,51,40,27,33,26,20,75,50,29,30.51,30.45,30.35,10,10,10,16,7,25,0.00,0,,88
2014-4-21,57,40,23,41,31,19,92,72,39,30.32,30.14,29.91,10,10,8,9,2,,0.00,0,,183
2014-4-22,61,46,33,48,42,29,93,78,62,29.90,29.68,29.52,10,9,2,15,4,22,0.01,2,Rain,216
2014-4-23,57,47,37,47,39,29,100,79,45,29.75,29.53,29.47,10,5,0,24,4,37,0.01,6,Fog-Rain,322
2014-4-24,60,52,43,28,18,12,48,29,16,29.99,29.84,29.76,10,10,10,29,20,43,0.00,0,,315
2014-4-25,57,45,33,40,27,21,77,48,28,30.05,29.98,29.85,10,10,10,14,7,17,0.00,0,,209
2014-4-26,55,50,44,46,43,37,93,82,66,29.90,29.79,29.73,10,8,2,12,7,16,0.37,7,Rain,44
2014-4-27,57,46,36,40,37,33,92,68,42,30.11,29.98,29.88,10,10,10,17,6,29,0.01,5,,335
2014-4-28,63,48,36,39,35,29,76,56,34,30.19,30.09,30.04,10,10,10,16,9,23,0.00,0,,3
2014-4-29,48,46,43,39,36,34,76,69,61,30.48,30.37,30.19,10,10,10,17,10,32,0.02,8,Rain,84
2014-4-30,53,46,42,49,40,35,96,85,74,30.48,30.33,30.05,10,6,2,20,12,31,0.79,8,Rain,86